This is the latest recevied weather packets stored in our database for station/object K4VEB. If no packets are shown the sender has not sent any weather packets the latest 10 day(s).
| Time | Temp. | Humidity | Pressure | Rain* | Wind** | Luminosity | Snow |
|---|---|---|---|---|---|---|---|
| 1778066792 | 18.33° C | 91% | 1016.2 hPa | 0 mm | - | 33 W/m² | - |
| 1778066490 | 18.33° C | 92% | 1016.2 hPa | 0 mm | - | 28 W/m² | - |
| 1778066188 | 18.33° C | 92% | 1016.2 hPa | 0 mm | - | 24 W/m² | - |
| 1778065885 | 18.33° C | 91% | 1016.3 hPa | 0 mm | - | 19 W/m² | - |
| 1778065582 | 18.33° C | 92% | 1016.1 hPa | 0 mm | - | 16 W/m² | - |
| 1778065280 | 17.78° C | 92% | 1016.1 hPa | 0 mm | - | 10 W/m² | - |
| 1778064976 | 17.78° C | 91% | 1016 hPa | 0 mm | - | 8 W/m² | - |
| 1778064673 | 17.78° C | 92% | 1015.8 hPa | 0 mm | - | 4 W/m² | - |
| 1778064371 | 17.78° C | 91% | 1015.8 hPa | 0 mm | - | 3 W/m² | - |
| 1778064068 | 17.78° C | 91% | 1015.6 hPa | 0 mm | - | 1 W/m² | - |
| 1778063766 | 17.78° C | 91% | 1015.7 hPa | 0 mm | - | 1 W/m² | - |
| 1778063462 | 17.78° C | 91% | 1015.7 hPa | 0 mm | - | 0 W/m² | - |
| 1778063161 | 17.78° C | 91% | 1015.8 hPa | 0 mm | - | 0 W/m² | - |
| 1778062858 | 17.78° C | 91% | 1015.7 hPa | 0 mm | - | 0 W/m² | - |
| 1778062554 | 17.78° C | 91% | 1015.5 hPa | 0 mm | - | 0 W/m² | - |
| 1778062251 | 17.78° C | 90% | 1015.5 hPa | 0 mm | - | 0 W/m² | - |
| 1778061949 | 17.78° C | 90% | 1015.5 hPa | 0 mm | - | 0 W/m² | - |
| 1778061647 | 17.78° C | 90% | 1015.7 hPa | 0 mm | - | 0 W/m² | - |
| 1778061346 | 17.78° C | 90% | 1015.4 hPa | 0 mm | - | 0 W/m² | - |
| 1778061042 | 17.78° C | 90% | 1015.6 hPa | 0 mm | - | 0 W/m² | - |
| 1778060740 | 17.78° C | 90% | 1015.7 hPa | 0 mm | - | 0 W/m² | - |
| 1778060438 | 17.78° C | 89% | 1015.6 hPa | 0 mm | - | 0 W/m² | - |
| 1778060136 | 17.78° C | 89% | 1015.7 hPa | 0 mm | - | 0 W/m² | - |
| 1778059833 | 18.33° C | 89% | 1015.7 hPa | 0 mm | - | 0 W/m² | - |
| 1778059531 | 18.33° C | 89% | 1015.8 hPa | 0 mm | - | 0 W/m² | - |
* Rain latest hour (hover to see other rain measurements)
** Current wind speed in m/s (hover to see current wind gust speed)